Weather in Dilijan

Armenia     40°44′30″N   44°52′19″E
temp.,
°C
wind,
m/s
gust,
m/s
humid.,
%
clouds,
%
prec.,
mm/h
press.,
hPa
HPBL,
m
13 april, tue
tue1301:00+3se12731 0.2 101719
04:00+1ese229231 0.5 101898
07:00+1ese2493100 0.0 1019209
10:00+6e355997 0.3 10171094
13:00+7e4857100 1.4 10151680
16:00+3s248696 4.6 1017477
19:00+5sse11672 0.2 101522
22:00+1nw129898 0.3 101924
14 april, wed
wed1401:00+2n2298100 0.5 1016234
04:00+1sw12100100 5.6 1016105
07:00+1w2296100 2.5 1017177
10:00+2wsw2381100 2.8 1017591
13:00+6wsw465921 0.1 10151607
16:00+7sw475026 0.6 10141664
19:00+5wsw485968 0.1 1015316
22:00+2wsw22648 0.2 101716
15 april, thu
thu1501:00+1sw32595 0.0 101818
04:00+1sw32595 0.0 101820
07:00+2ssw32612 0.0 101825
10:00+7sw23425 0.0 10171236
13:00+10w353750 0.0 10152413
16:00+10nw343596 0.0 10142225
19:00+7ne2262100 0.3 101647
22:00+4nw0176100 0.4 101811
16 april, fri
fri1601:00+3sse1179100 0.1 101710
04:00+2s117788 0.1 101710
07:00+3s11756 0.0 101810
10:00+8ese135128 0.0 10161241
13:00+10wsw3548100 0.9 10161729
16:00+11wsw2544100 2.2 10141769
19:00+6nnw118594 1.8 1018286
22:00+4nw119219 2.3 102011
17 april, sat
sat1701:00+4s118818 0.2 102011
04:00+3ssw118298 0.2 101910
07:00+4sw117789 0.0 102010
10:00+10ssw2355100 0.0 1018904
13:00+12sw2548100 0.0 10161765
16:00+12ssw245195 0.6 10161290
19:00+10wnw036985 0.4 1016101
22:00+6se2291100 0.4 101941